This demonstration page uses our WeatherBlox Daily Observations layout. Learn more.

Left ArrowRight Arrow

39.08367, -84.50855

Hourly Observations for December 2, 2020

Temp ( °F °C ) Dew Point ( °F °C ) Humidity (%) Winds ( mph kmh ) Pressure ( in mb ) Visibility ( mi km ) Precip ( " mm )
12:53 am 00:53 Cloudy 31 -0.6 22 -5.6 69 69 NNW 7 11 30.22 1023 10 16.0934 0 0
1:19 am 01:19 Partly Cloudy 31 -0.6 21 -6.1 67 67 NW 6 9 30.24 1024 10 16.0934 0 0
1:53 am 01:53 Clear 28 -2.2 22 -5.6 78 78 SW 8 13 30.23 1024 10 16.0934 0 0
2:53 am 02:53 Clear 27 -2.8 21 -6.1 78 78 WSW 6 9 30.26 1025 10 16.0934 0 0
3:53 am 03:53 Clear 27 -2.8 21 -6.1 78 78 W 8 13 30.27 1025 10 16.0934 0 0
4:53 am 04:53 Clear 26 -3.3 20 -6.7 78 78 WSW 6 9 30.29 1026 10 16.0934 0 0
5:53 am 05:53 Clear 24 -4.4 19 -7.2 81 81 SW 6 9 30.31 1026 10 16.0934 0 0
6:53 am 06:53 Clear 25 -3.9 20 -6.7 81 81 S 6 9 30.32 1027 10 16.0934 0 0
7:53 am 07:53 Sunny 24 -4.4 20 -6.7 84 84 S 6 9 30.35 1028 10 16.0934 0 0
8:53 am 08:53 Sunny 28 -2.2 22 -5.6 78 78 SW 7 11 30.38 1029 10 16.0934 0 0
9:53 am 09:53 Sunny 31 -0.6 23 -5 72 72 WSW 8 13 30.4 1029 10 16.0934 0 0
10:53 am 10:53 Sunny 33 0.6 25 -3.9 72 72 SW 3 6 30.41 1030 10 16.0934 0 0
11:53 am 11:53 Sunny 36 2.2 27 -2.8 70 70 W 6 9 30.4 1030 10 16.0934 0 0
12:53 pm 12:53 Sunny 39 3.9 29 -1.7 67 67 SW 9 15 30.4 1029 10 16.0934 0 0
1:53 pm 13:53 Sunny 41 5 29 -1.7 62 62 WSW 7 11 30.38 1029 10 16.0934 0 0
2:53 pm 14:53 Sunny 42 5.6 29 -1.7 60 60 SSW 5 7 30.37 1028 10 16.0934 0 0
3:53 pm 15:53 Sunny 43 6.1 29 -1.7 58 58 S 6 9 30.37 1028 10 16.0934 0 0
4:53 pm 16:53 Sunny 39 3.9 28 -2.2 65 65 SSW 5 7 30.37 1028 10 16.0934 0 0
5:53 pm 17:53 Clear 34 1.1 29 -1.7 82 82 S 5 7 30.37 1029 10 16.0934 0 0
6:53 pm 18:53 Clear 32 0 28 -2.2 85 85 Calm 30.37 1028 10 16.0934 0 0
7:53 pm 19:53 Clear 30 -1.1 26 -3.3 85 85 Calm 30.37 1029 10 16.0934 0 0
8:53 pm 20:53 Clear 29 -1.7 26 -3.3 89 89 Calm 30.38 1029 10 16.0934 0 0
9:53 pm 21:53 Clear 28 -2.2 25 -3.9 88 88 Calm 30.39 1029 10 16.0934 0 0
10:53 pm 22:53 Clear with Mist and Fog 27 -2.8 25 -3.9 92 92 Calm 30.39 1029 6 9.65604 0 0
11:43 pm 23:43 Clear with Mist and Fog 24 -4.4 23 -5 96 96 Calm 30.4 1029 1.5 2.41401 0 0
11:53 pm 23:53 Clear with Freezing Fog 25 -3.9 23 -5 92 92 Calm 30.36 1028 0.5 0.80467 0 0
11:59 pm 23:59 Clear with Mist and Fog 23 -5 22 -5.6 96 96 Calm 30.39 1029 2.5 4.02335 0 0

Powered by AerisWeather